Location: Cahas Mountain Overlook
(37.0833°N, 80.1000°W)
Time: 07:01:06
(UTC-04:00)

Explorer 7 - Pass Details

Date: 17 February 2026
Orbit: 430 x 540 km, 50.2° (Epoch: 14 March)

Event Time Altitude Azimuth Distance (km) Brightness Sun altitude
Rises 23:08:52 0° 289° (WNW) 2,619 - -58.1°
Reaches altitude 10° 23:11:56 10° 263° (W) 1,753 - -58.5°
Maximum altitude 23:14:02 14° 231° (SW) 1,529 - -58.8°
Drops below altitude 10° 23:16:09 10° 199° (SSW) 1,774 - -59.1°
Sets 23:19:17 0° 174° (S) 2,675 - -59.5°
